Weather in Krasnaya Gorka

Russia / Tomsk District     57°06′14″N   87°13′56″E
temp.,
°C
wind,
m/s
gust,
m/s
humid.,
%
clouds,
%
prec.,
mm/h
press.,
hPa
HPBL,
m
9 december, thu
thu901:00−17wsw3895100 0.3 1035420
04:00−18wsw3895100 0.1 1036414
07:00−18wsw4995100 0.2 1037415
10:00−18sw41094100 0.1 1038413
13:00−17sw51291100 0.1 1039540
16:00−16sw61390100 0.1 1038643
19:00−16sw61490100 0.1 1039615
22:00−16sw71590100 0.0 1039622
10 december, fri
fri1001:00−16sw71690100 0.1 1038617
04:00−16sw71789100 0.0 1038640
07:00−16sw61594100 0.4 1038590
10:00−15sw51394100 0.6 1038588
13:00−13sw51191100 1.0 1038612
16:00−13sw41092100 0.2 1039547
19:00−13sw4109397 0.3 1040420
22:00−13ssw41093100 0.1 1040414
11 december, sat
sat1101:00−12ssw41292100 0.1 1038494
04:00−10ssw51391100 0.5 1036551
07:00−10ssw51485100 0.5 1035538
10:00−9ssw61680100 0.0 1033566
13:00−8ssw61775100 0.0 1031651
16:00−7ssw61676100 0.0 1028626
19:00−7ssw61677100 0.0 1025632
22:00−7sw61578100 0.0 1023627
12 december, sun
sun1201:00−8sw51284100 0.0 1021605
04:00−9wsw41091100 0.0 1020554
07:00−10wsw3894100 0.2 1020407
10:00−12wsw3796100 0.1 1020299
13:00−13w379498 0.1 1021346
16:00−15w379693 0.1 1021270
19:00−18w379895 0.1 1023245
22:00−18w369694 0.1 1024305
13 december, mon
mon1301:00−19w269686 0.2 1026301
04:00−21wsw269982 0.1 1027189
07:00−20wsw279895 0.1 1028271
10:00−19sw3797100 0.1 1028328
13:00−18sw3690100 0.4 1028535
16:00−17sw3694100 0.3 1028507
19:00−17ssw3795100 0.4 1027423
22:00−17ssw2596100 0.2 1026304